contact:dominique.lefevre@mio.osupytheas.fr, maurice.libes@osupytheas.fr, didier.mallarino@osupytheas.fr
Project:EMSO http://www.emso-fr.org/EMSO-France
Depth: 2436.0 m
Title:EMSO Ligure Ouest : Data MII capteur AQUADOPP
Date,Latitude,Longitude,X_East,Y_North,Z_Up,Amplitude_X,Amplitude_Y,Amplitude_Z,Batterie,SoundSpeed,Heading,Pitch,Roll,Pressure,TIS,Speed,Direction
, degrees North, degrees East, m.s-1, m.s-1,m.s-1, 1, 1, 1, Volt, m.s-1, degree, degree, degree, dbar, degree_C, m.s-1, degree
2021-09-26T00:04:03,42.805,6.029,0.04,0.0,-0.013,101.0,101.0,101.0,13.4,1505.2,328.4,-0.8,1.8,2470.737,13.28,0.04,90.0
2021-09-26T00:07:03,42.805,6.029,0.021,0.009,0.041,102.0,103.0,100.0,13.3,1505.2,327.5,-0.7,1.8,2470.714,13.28,0.022,66.8
2021-09-26T00:10:03,42.805,6.029,0.037,0.017,0.016,101.0,101.0,101.0,13.4,1505.2,326.7,-0.7,1.9,2470.714,13.28,0.04,65.3
2021-09-26T00:13:03,42.805,6.029,0.042,-0.018,-0.023,102.0,102.0,101.0,13.4,1505.2,328.1,-0.7,1.8,2470.661,13.28,0.045,113.2
2021-09-26T00:16:03,42.805,6.029,0.032,-0.008,-0.011,99.0,103.0,102.0,13.3,1505.2,329.3,-0.8,1.8,2470.69,13.28,0.032,104.0
2021-09-26T00:19:03,42.805,6.029,0.039,0.001,-0.034,100.0,102.0,101.0,13.4,1505.2,327.0,-0.7,1.8,2470.721,13.28,0.039,88.5
2021-09-26T00:22:03,42.805,6.029,0.032,-0.007,-0.003,102.0,102.0,101.0,13.4,1505.2,325.7,-0.7,1.8,2470.673,13.28,0.032,102.3
2021-09-26T00:25:03,42.805,6.029,0.03,-0.012,-0.002,101.0,103.0,99.0,13.4,1505.2,326.1,-0.7,1.8,2470.68,13.28,0.032,111.8
2021-09-26T00:28:03,42.805,6.029,0.016,-0.02,-0.007,101.0,102.0,101.0,13.3,1505.2,326.4,-0.8,1.8,2470.69,13.28,0.025,141.3
2021-09-26T00:31:03,42.805,6.029,0.039,-0.006,-0.015,101.0,102.0,101.0,13.3,1505.2,329.1,-0.7,1.8,2470.688,13.28,0.039,98.7
2021-09-26T00:34:03,42.805,6.029,0.016,-0.004,0.01,101.0,103.0,101.0,13.4,1505.2,329.4,-0.8,1.8,2470.658,13.28,0.016,104.0
2021-09-26T00:37:03,42.805,6.029,0.016,0.007,0.0,102.0,103.0,101.0,13.4,1505.2,328.0,-0.7,1.8,2470.668,13.28,0.017,66.4
2021-09-26T00:40:03,42.805,6.029,0.055,-0.01,0.018,103.0,103.0,100.0,13.3,1505.2,329.1,-0.7,1.8,2470.646,13.28,0.055,100.3
2021-09-26T00:43:03,42.805,6.029,0.04,0.003,0.001,103.0,101.0,101.0,13.4,1505.2,327.1,-0.8,1.8,2470.669,13.28,0.04,85.7
2021-09-26T00:46:03,42.805,6.029,0.03,-0.002,-0.024,101.0,103.0,101.0,13.3,1505.2,325.6,-0.8,1.8,2470.629,13.28,0.03,93.8
2021-09-26T00:49:03,42.805,6.029,0.025,-0.029,-0.021,103.0,103.0,99.0,13.3,1505.2,325.3,-0.8,1.8,2470.655,13.28,0.038,139.2
2021-09-26T00:52:03,42.805,6.029,0.02,-0.022,-0.024,102.0,103.0,99.0,13.4,1505.2,329.2,-0.8,1.8,2470.651,13.28,0.029,137.7
2021-09-26T00:55:03,42.805,6.029,0.023,0.004,-0.003,102.0,102.0,100.0,13.4,1505.2,328.3,-0.7,1.8,2470.643,13.28,0.023,80.1
2021-09-26T00:58:03,42.805,6.029,0.032,-0.009,0.008,102.0,103.0,101.0,13.3,1505.2,327.0,-0.7,1.8,2470.643,13.28,0.033,105.7
2021-09-26T01:04:03,42.805,6.029,-0.001,-0.013,-0.031,104.0,104.0,103.0,13.3,1505.2,325.3,-0.8,1.8,2470.73,13.28,0.013,184.4
2021-09-26T01:07:03,42.805,6.029,0.018,0.028,-0.021,102.0,103.0,102.0,13.4,1505.2,327.6,-0.7,1.9,2470.685,13.28,0.033,32.7
2021-09-26T01:10:03,42.805,6.029,0.031,0.006,0.028,102.0,103.0,101.0,13.4,1505.2,328.3,-0.7,1.8,2470.653,13.28,0.031,79.0
2021-09-26T01:13:03,42.805,6.029,0.018,-0.007,0.0,101.0,105.0,100.0,13.3,1505.2,330.1,-0.7,1.8,2470.664,13.28,0.019,111.2
2021-09-26T01:16:03,42.805,6.029,0.012,-0.006,-0.005,102.0,102.0,101.0,13.3,1505.2,328.2,-0.7,1.8,2470.632,13.28,0.013,116.6
2021-09-26T01:19:03,42.805,6.029,0.025,0.003,0.03,102.0,101.0,101.0,13.3,1505.2,327.4,-0.8,1.9,2470.649,13.28,0.025,83.2
2021-09-26T01:22:03,42.805,6.029,0.04,-0.008,-0.007,103.0,101.0,100.0,13.4,1505.2,328.1,-0.8,1.8,2470.64,13.28,0.04,101.3
2021-09-26T01:25:03,42.805,6.029,0.049,-0.016,-0.02,103.0,103.0,100.0,13.4,1505.2,329.1,-0.8,1.8,2470.645,13.28,0.051,108.1
2021-09-26T01:28:03,42.805,6.029,0.029,-0.004,-0.027,100.0,102.0,102.0,13.4,1505.2,330.5,-0.8,1.8,2470.644,13.28,0.029,97.8
2021-09-26T01:31:03,42.805,6.029,0.026,-0.002,-0.006,101.0,102.0,101.0,13.3,1505.2,329.2,-0.7,1.8,2470.659,13.28,0.026,94.4
2021-09-26T01:34:03,42.805,6.029,0.041,0.0,0.039,103.0,102.0,101.0,13.4,1505.2,326.2,-0.8,1.9,2470.627,13.28,0.041,90.0
2021-09-26T01:37:03,42.805,6.029,0.034,-0.004,0.015,102.0,101.0,102.0,13.4,1505.2,329.8,-0.8,1.8,2470.647,13.28,0.034,96.7
2021-09-26T01:40:03,42.805,6.029,0.027,-0.014,-0.02,103.0,101.0,102.0,13.4,1505.2,329.3,-0.7,1.9,2470.586,13.28,0.03,117.4
2021-09-26T01:43:03,42.805,6.029,0.02,-0.009,-0.002,101.0,102.0,101.0,13.4,1505.2,327.7,-0.8,1.8,2470.6,13.28,0.021,114.2
2021-09-26T01:46:03,42.805,6.029,0.061,-0.008,0.006,101.0,102.0,101.0,13.4,1505.2,331.5,-0.8,1.8,2470.583,13.28,0.061,97.5
2021-09-26T01:49:03,42.805,6.029,0.006,-0.019,0.004,101.0,102.0,101.0,13.4,1505.2,328.4,-0.7,1.8,2470.634,13.28,0.019,162.5
2021-09-26T01:52:03,42.805,6.029,0.042,-0.005,0.018,102.0,102.0,101.0,13.4,1505.2,331.7,-0.7,1.8,2470.619,13.28,0.042,96.8
2021-09-26T01:55:03,42.805,6.029,0.04,0.001,0.007,102.0,103.0,101.0,13.4,1505.2,327.6,-0.7,1.8,2470.62,13.28,0.04,88.6
2021-09-26T01:58:03,42.805,6.029,0.028,-0.01,-0.003,101.0,103.0,101.0,13.4,1505.2,331.7,-0.7,1.8,2470.605,13.28,0.029,109.6
2021-09-26T02:04:03,42.805,6.029,0.008,-0.016,-0.021,103.0,103.0,101.0,13.4,1505.2,328.1,-0.7,1.8,2470.64,13.28,0.017,153.4
2021-09-26T02:07:03,42.805,6.029,0.015,-0.007,-0.003,103.0,102.0,101.0,13.4,1505.2,328.9,-0.8,1.9,2470.66,13.28,0.016,115.0
2021-09-26T02:10:03,42.805,6.029,0.027,0.008,0.009,103.0,103.0,101.0,13.4,1505.2,327.9,-0.7,1.8,2470.602,13.28,0.028,73.5
2021-09-26T02:13:03,42.805,6.029,0.024,-0.004,-0.017,102.0,102.0,102.0,13.3,1505.2,327.1,-0.7,1.8,2470.61,13.28,0.024,99.5
2021-09-26T02:16:03,42.805,6.029,0.029,-0.002,0.011,102.0,102.0,102.0,13.3,1505.2,327.6,-0.7,1.8,2470.616,13.28,0.029,93.9
2021-09-26T02:19:03,42.805,6.029,0.046,-0.026,-0.035,102.0,101.0,102.0,13.3,1505.2,328.8,-0.7,1.8,2470.63,13.28,0.052,119.5
2021-09-26T02:22:03,42.805,6.029,0.015,-0.004,-0.01,104.0,101.0,101.0,13.4,1505.2,329.8,-0.8,1.8,2470.577,13.28,0.015,104.9
2021-09-26T02:25:03,42.805,6.029,0.032,-0.036,0.0,102.0,103.0,101.0,13.3,1505.2,331.5,-0.8,1.8,2470.631,13.28,0.048,138.4
2021-09-26T02:28:03,42.805,6.029,0.047,-0.028,0.001,102.0,104.0,100.0,13.4,1505.2,329.4,-0.8,1.8,2470.603,13.28,0.054,120.8
2021-09-26T02:31:03,42.805,6.029,0.03,-0.017,0.011,102.0,102.0,101.0,13.3,1505.2,331.1,-0.8,1.8,2470.596,13.28,0.034,119.5
2021-09-26T02:34:03,42.805,6.029,0.021,-0.023,0.0,100.0,102.0,102.0,13.4,1505.2,328.9,-0.8,1.9,2470.574,13.28,0.031,137.6
2021-09-26T02:37:03,42.805,6.029,0.028,-0.025,-0.018,102.0,102.0,101.0,13.4,1505.2,325.0,-0.8,1.8,2470.584,13.28,0.037,131.8
2021-09-26T02:40:03,42.805,6.029,0.039,-0.028,-0.024,101.0,102.0,101.0,13.3,1505.2,327.7,-0.8,1.8,2470.63,13.28,0.048,125.7
2021-09-26T02:43:03,42.805,6.029,0.025,-0.007,-0.012,102.0,101.0,100.0,13.4,1505.2,326.8,-0.7,1.8,2470.593,13.28,0.025,105.6
2021-09-26T02:46:03,42.805,6.029,0.047,-0.001,0.024,100.0,101.0,102.0,13.4,1505.2,327.8,-0.7,1.8,2470.577,13.28,0.047,91.2
2021-09-26T02:49:03,42.805,6.029,0.03,-0.013,0.0,100.0,101.0,102.0,13.4,1505.2,325.6,-0.7,1.9,2470.585,13.28,0.032,113.4
2021-09-26T02:52:03,42.805,6.029,0.03,-0.034,-0.013,102.0,102.0,101.0,13.4,1505.2,327.5,-0.8,1.8,2470.606,13.28,0.045,138.6
2021-09-26T02:55:03,42.805,6.029,0.021,-0.028,-0.009,100.0,101.0,101.0,13.4,1505.2,325.3,-0.8,1.8,2470.598,13.28,0.035,143.1
2021-09-26T02:58:03,42.805,6.029,0.025,-0.004,0.006,101.0,101.0,101.0,13.4,1505.2,327.8,-0.7,1.8,2470.598,13.28,0.025,99.1
2021-09-26T03:04:03,42.805,6.029,0.016,-0.002,0.003,104.0,102.0,102.0,13.4,1505.2,326.5,-0.8,1.8,2470.622,13.28,0.016,97.1
2021-09-26T03:07:03,42.805,6.029,0.046,-0.012,0.001,101.0,102.0,101.0,13.4,1505.2,331.3,-0.8,1.8,2470.644,13.28,0.047,104.6
2021-09-26T03:10:03,42.805,6.029,0.003,-0.013,-0.022,101.0,101.0,101.0,13.4,1505.2,326.2,-0.7,1.8,2470.621,13.28,0.013,167.0
2021-09-26T03:13:03,42.805,6.029,0.029,-0.006,0.015,102.0,102.0,102.0,13.3,1505.2,327.6,-0.7,1.8,2470.587,13.28,0.029,101.7
2021-09-26T03:16:03,42.805,6.029,0.005,-0.016,-0.011,102.0,101.0,101.0,13.3,1505.2,330.3,-0.8,1.8,2470.605,13.28,0.016,162.6
2021-09-26T03:19:03,42.805,6.029,0.022,-0.016,-0.011,101.0,102.0,101.0,13.4,1505.2,331.3,-0.8,1.8,2470.622,13.28,0.027,126.0
2021-09-26T03:22:03,42.805,6.029,0.005,-0.017,-0.037,101.0,103.0,101.0,13.4,1505.2,331.1,-0.7,1.8,2470.62,13.28,0.017,163.6
2021-09-26T03:25:03,42.805,6.029,0.017,-0.017,0.016,101.0,103.0,102.0,13.4,1505.2,328.2,-0.7,1.8,2470.617,13.28,0.024,135.0
2021-09-26T03:28:03,42.805,6.029,0.021,0.002,-0.004,102.0,101.0,101.0,13.4,1505.2,329.9,-0.8,1.8,2470.603,13.28,0.021,84.6
2021-09-26T03:31:03,42.805,6.029,0.012,-0.004,-0.005,102.0,101.0,101.0,13.4,1505.2,331.4,-0.8,1.9,2470.593,13.28,0.012,108.4
2021-09-26T03:34:03,42.805,6.029,0.019,-0.006,0.003,102.0,102.0,100.0,13.4,1505.2,327.3,-0.8,1.8,2470.615,13.28,0.019,107.5
2021-09-26T03:37:03,42.805,6.029,0.015,-0.027,-0.011,103.0,102.0,101.0,13.4,1505.2,331.3,-0.7,1.8,2470.612,13.28,0.03,150.9
2021-09-26T03:40:03,42.805,6.029,0.038,-0.035,-0.002,101.0,104.0,100.0,13.4,1505.2,329.3,-0.8,1.8,2470.64,13.28,0.051,132.6
2021-09-26T03:43:03,42.805,6.029,0.023,-0.007,-0.007,102.0,102.0,101.0,13.3,1505.2,330.2,-0.7,1.8,2470.609,13.28,0.024,106.9
2021-09-26T03:46:03,42.805,6.029,0.01,-0.009,-0.012,103.0,99.0,101.0,13.4,1505.2,330.3,-0.8,1.9,2470.569,13.28,0.013,132.0
2021-09-26T03:49:03,42.805,6.029,0.04,-0.02,-0.018,100.0,101.0,102.0,13.4,1505.2,330.1,-0.7,1.8,2470.595,13.28,0.044,116.6
2021-09-26T03:52:03,42.805,6.029,0.025,-0.012,0.0,102.0,101.0,101.0,13.4,1505.2,327.5,-0.8,1.8,2470.563,13.28,0.027,115.6
2021-09-26T03:55:03,42.805,6.029,0.017,0.016,0.0,102.0,100.0,101.0,13.4,1505.2,329.5,-0.8,1.8,2470.605,13.28,0.023,46.7
2021-09-26T03:58:03,42.805,6.029,0.02,-0.014,-0.006,104.0,98.0,101.0,13.3,1505.2,331.4,-0.8,1.8,2470.569,13.28,0.024,125.0
2021-09-26T04:04:03,42.805,6.029,0.022,-0.014,0.013,101.0,103.0,101.0,13.4,1505.2,328.6,-0.7,1.8,2470.608,13.28,0.026,122.5
2021-09-26T04:07:03,42.805,6.029,0.022,-0.035,0.012,101.0,101.0,100.0,13.4,1505.2,330.6,-0.8,1.9,2470.648,13.28,0.041,147.8
2021-09-26T04:10:03,42.805,6.029,0.016,-0.009,0.024,102.0,100.0,101.0,13.4,1505.2,328.9,-0.8,1.8,2470.61,13.28,0.018,119.4
2021-09-26T04:13:03,42.805,6.029,0.012,-0.019,-0.045,102.0,102.0,101.0,13.4,1505.2,327.0,-0.8,1.8,2470.599,13.28,0.022,147.7
2021-09-26T04:16:03,42.805,6.029,0.011,-0.008,-0.007,101.0,101.0,101.0,13.3,1505.2,329.6,-0.8,1.8,2470.583,13.28,0.013,126.0
2021-09-26T04:19:03,42.805,6.029,0.031,-0.026,-0.004,103.0,102.0,100.0,13.3,1505.2,327.5,-0.8,1.8,2470.571,13.28,0.04,130.0
2021-09-26T04:22:03,42.805,6.029,0.027,-0.011,-0.01,101.0,102.0,101.0,13.4,1505.2,326.0,-0.7,1.8,2470.612,13.28,0.029,112.2
2021-09-26T04:25:03,42.805,6.029,0.025,-0.028,-0.026,102.0,101.0,101.0,13.3,1505.2,327.2,-0.7,1.8,2470.559,13.28,0.037,138.2
2021-09-26T04:28:03,42.805,6.029,0.027,0.01,-0.007,102.0,101.0,101.0,13.4,1505.2,326.8,-0.8,1.8,2470.583,13.28,0.028,69.7
2021-09-26T04:31:03,42.805,6.029,0.029,-0.015,0.007,101.0,101.0,102.0,13.4,1505.2,327.8,-0.8,1.8,2470.578,13.28,0.032,117.4
2021-09-26T04:34:03,42.805,6.029,0.037,-0.029,-0.03,103.0,99.0,102.0,13.3,1505.2,328.0,-0.7,1.8,2470.546,13.28,0.047,128.1
2021-09-26T04:37:03,42.805,6.029,0.019,-0.036,-0.024,103.0,101.0,102.0,13.4,1505.2,327.7,-0.8,1.9,2470.553,13.28,0.04,152.2
2021-09-26T04:40:03,42.805,6.029,0.022,-0.029,-0.028,102.0,103.0,100.0,13.3,1505.2,327.4,-0.7,1.8,2470.61,13.28,0.036,142.8
2021-09-26T04:43:03,42.805,6.029,0.011,-0.007,-0.007,100.0,102.0,100.0,13.4,1505.2,330.0,-0.7,1.8,2470.58,13.28,0.013,122.5
2021-09-26T04:46:03,42.805,6.029,0.042,-0.035,0.011,101.0,102.0,100.0,13.4,1505.2,327.3,-0.8,1.8,2470.595,13.28,0.054,129.8
2021-09-26T04:49:03,42.805,6.029,0.017,-0.021,0.002,102.0,101.0,100.0,13.3,1505.2,327.2,-0.8,1.8,2470.574,13.28,0.027,141.0
2021-09-26T04:52:03,42.805,6.029,0.046,-0.032,-0.018,101.0,101.0,101.0,13.3,1505.2,329.6,-0.7,1.8,2470.546,13.28,0.056,124.8
2021-09-26T04:55:03,42.805,6.029,0.042,-0.034,0.01,101.0,100.0,101.0,13.4,1505.2,327.3,-0.7,1.8,2470.569,13.28,0.054,129.0
2021-09-26T04:58:03,42.805,6.029,0.018,-0.008,-0.019,103.0,101.0,101.0,13.4,1505.2,327.4,-0.8,1.8,2470.547,13.28,0.019,114.0
2021-09-26T05:04:03,42.805,6.029,0.028,-0.016,-0.022,102.0,103.0,100.0,13.4,1505.2,327.6,-0.8,1.8,2470.644,13.28,0.032,119.7
2021-09-26T05:07:03,42.805,6.029,0.036,-0.021,0.001,101.0,101.0,101.0,13.3,1505.2,329.3,-0.7,1.8,2470.627,13.28,0.041,120.3
2021-09-26T05:10:03,42.805,6.029,0.03,0.003,0.025,102.0,103.0,100.0,13.4,1505.2,329.0,-0.8,1.8,2470.582,13.28,0.03,84.3
2021-09-26T05:13:03,42.805,6.029,-0.005,-0.023,0.004,102.0,100.0,101.0,13.3,1505.2,326.9,-0.7,1.8,2470.612,13.28,0.023,192.3
2021-09-26T05:16:03,42.805,6.029,0.021,0.005,-0.005,102.0,101.0,101.0,13.3,1505.2,327.7,-0.7,1.8,2470.595,13.28,0.021,76.6
2021-09-26T05:19:03,42.805,6.029,0.016,-0.003,-0.004,103.0,99.0,101.0,13.4,1505.2,328.8,-0.7,1.9,2470.594,13.28,0.016,100.6
2021-09-26T05:22:03,42.805,6.029,0.035,-0.021,-0.036,101.0,102.0,100.0,13.4,1505.2,328.1,-0.7,1.8,2470.632,13.28,0.04,121.0
2021-09-26T05:25:03,42.805,6.029,0.038,-0.02,-0.018,100.0,103.0,101.0,13.3,1505.2,331.4,-0.8,1.8,2470.596,13.28,0.042,117.8
2021-09-26T05:28:03,42.805,6.029,0.047,-0.02,0.004,101.0,100.0,102.0,13.4,1505.2,331.5,-0.8,1.8,2470.591,13.28,0.051,113.0
2021-09-26T05:31:03,42.805,6.029,0.012,-0.019,0.01,101.0,101.0,101.0,13.4,1505.2,330.8,-0.8,1.8,2470.578,13.28,0.022,147.7
2021-09-26T05:34:03,42.805,6.029,0.036,-0.021,-0.035,101.0,103.0,100.0,13.4,1505.2,330.1,-0.8,1.8,2470.59,13.28,0.041,120.3
2021-09-26T05:37:03,42.805,6.029,0.029,-0.005,0.034,102.0,102.0,100.0,13.4,1505.2,328.9,-0.7,1.8,2470.59,13.28,0.029,99.8
2021-09-26T05:40:03,42.805,6.029,0.007,-0.015,-0.029,101.0,101.0,100.0,13.4,1505.2,328.8,-0.8,1.8,2470.615,13.28,0.016,155.0
2021-09-26T05:43:03,42.805,6.029,0.01,-0.025,-0.027,101.0,103.0,101.0,13.3,1505.2,331.4,-0.8,1.8,2470.62,13.28,0.026,158.2
2021-09-26T05:46:03,42.805,6.029,0.023,-0.019,-0.023,103.0,102.0,101.0,13.4,1505.2,330.8,-0.7,1.8,2470.59,13.28,0.029,129.6
2021-09-26T05:49:03,42.805,6.029,0.014,-0.025,-0.004,102.0,103.0,101.0,13.4,1505.2,331.0,-0.7,1.8,2470.628,13.28,0.028,150.7
2021-09-26T05:52:03,42.805,6.029,0.021,-0.025,-0.01,102.0,101.0,101.0,13.3,1505.2,326.1,-0.7,1.8,2470.582,13.28,0.032,140.0
2021-09-26T05:55:03,42.805,6.029,0.022,-0.014,-0.001,100.0,103.0,101.0,13.4,1505.2,326.8,-0.8,1.8,2470.612,13.28,0.026,122.5
2021-09-26T05:58:03,42.805,6.029,0.028,-0.016,-0.012,101.0,103.0,101.0,13.4,1505.2,329.3,-0.7,1.8,2470.608,13.28,0.032,119.7
2021-09-26T06:04:04,42.805,6.029,0.03,-0.01,0.009,101.0,102.0,101.0,13.3,1505.2,328.4,-0.7,1.8,2470.666,13.28,0.031,108.4
2021-09-26T06:07:03,42.805,6.029,0.014,-0.012,0.005,102.0,100.0,101.0,13.4,1505.2,330.7,-0.8,1.8,2470.641,13.28,0.018,130.6
2021-09-26T06:10:03,42.805,6.029,0.007,-0.009,0.001,101.0,102.0,101.0,13.4,1505.2,325.8,-0.7,1.8,2470.674,13.28,0.011,142.1
2021-09-26T06:13:03,42.805,6.029,0.06,-0.023,-0.016,101.0,102.0,101.0,13.4,1505.2,326.9,-0.8,1.8,2470.661,13.28,0.064,111.0
2021-09-26T06:16:03,42.805,6.029,0.034,-0.026,-0.018,101.0,102.0,101.0,13.3,1505.2,331.0,-0.7,1.8,2470.621,13.28,0.042,127.4
2021-09-26T06:19:03,42.805,6.029,0.031,-0.012,-0.031,102.0,102.0,100.0,13.4,1505.2,327.2,-0.7,1.8,2470.625,13.28,0.033,111.2
2021-09-26T06:22:03,42.805,6.029,0.025,-0.003,0.012,100.0,102.0,101.0,13.3,1505.2,330.5,-0.8,1.8,2470.646,13.28,0.025,96.8
2021-09-26T06:25:03,42.805,6.029,0.021,-0.014,-0.007,102.0,101.0,101.0,13.4,1505.2,328.1,-0.8,1.8,2470.607,13.28,0.025,123.7
2021-09-26T06:28:03,42.805,6.029,0.013,-0.01,-0.016,101.0,101.0,101.0,13.3,1505.2,328.8,-0.7,1.8,2470.635,13.28,0.016,127.6
2021-09-26T06:31:03,42.805,6.029,0.027,-0.017,-0.003,102.0,101.0,100.0,13.4,1505.2,329.4,-0.8,1.8,2470.62,13.28,0.031,122.2
2021-09-26T06:34:03,42.805,6.029,0.037,-0.019,0.006,103.0,101.0,100.0,13.3,1505.2,327.7,-0.7,1.9,2470.62,13.28,0.041,117.2
2021-09-26T06:37:03,42.805,6.029,0.016,-0.026,-0.047,103.0,101.0,101.0,13.4,1505.2,325.9,-0.8,1.8,2470.62,13.28,0.03,148.4
2021-09-26T06:40:03,42.805,6.029,0.014,-0.029,-0.04,103.0,100.0,101.0,13.4,1505.2,329.1,-0.7,1.8,2470.599,13.28,0.032,154.2
2021-09-26T06:43:03,42.805,6.029,0.033,-0.011,-0.011,101.0,102.0,101.0,13.3,1505.2,328.9,-0.8,1.8,2470.647,13.28,0.034,108.4
2021-09-26T06:46:03,42.805,6.029,0.023,-0.016,0.004,101.0,101.0,101.0,13.4,1505.2,331.4,-0.7,1.8,2470.595,13.28,0.028,124.8
2021-09-26T06:49:03,42.805,6.029,0.016,-0.031,-0.005,102.0,103.0,100.0,13.4,1505.2,330.4,-0.8,1.8,2470.624,13.28,0.034,152.7
2021-09-26T06:52:03,42.805,6.029,0.024,-0.017,-0.032,101.0,101.0,101.0,13.3,1505.2,327.1,-0.8,1.8,2470.649,13.28,0.029,125.3
2021-09-26T06:55:03,42.805,6.029,0.023,-0.028,-0.046,100.0,102.0,100.0,13.4,1505.2,325.1,-0.7,1.8,2470.665,13.28,0.036,140.6
2021-09-26T06:58:03,42.805,6.029,0.009,-0.008,0.004,102.0,101.0,100.0,13.3,1505.2,330.5,-0.7,1.8,2470.621,13.28,0.012,131.6
2021-09-26T07:04:03,42.805,6.029,0.03,-0.003,-0.004,103.0,102.0,101.0,13.3,1505.2,331.3,-0.8,1.8,2470.682,13.28,0.03,95.7
2021-09-26T07:07:03,42.805,6.029,0.014,-0.005,0.001,102.0,103.0,101.0,13.3,1505.2,326.2,-0.8,1.8,2470.674,13.28,0.014,109.6
2021-09-26T07:10:03,42.805,6.029,0.014,-0.001,-0.026,101.0,103.0,101.0,13.3,1505.2,328.8,-0.7,1.8,2470.661,13.28,0.014,94.1
2021-09-26T07:13:03,42.805,6.029,0.021,-0.006,-0.013,101.0,102.0,100.0,13.4,1505.2,328.1,-0.8,1.8,2470.656,13.28,0.021,105.9
2021-09-26T07:16:03,42.805,6.029,0.037,-0.011,-0.02,102.0,103.0,100.0,13.4,1505.2,330.2,-0.7,1.8,2470.632,13.28,0.038,106.6
2021-09-26T07:19:03,42.805,6.029,0.02,-0.01,-0.023,103.0,101.0,101.0,13.3,1505.2,330.2,-0.7,1.8,2470.636,13.28,0.022,116.6
2021-09-26T07:22:03,42.805,6.029,0.013,-0.019,-0.011,103.0,102.0,101.0,13.4,1505.2,327.2,-0.8,1.8,2470.656,13.28,0.023,145.6
2021-09-26T07:25:03,42.805,6.029,0.019,-0.017,-0.02,101.0,100.0,102.0,13.3,1505.2,326.7,-0.7,1.8,2470.628,13.28,0.025,131.8
2021-09-26T07:28:03,42.805,6.029,0.021,-0.012,0.009,102.0,102.0,101.0,13.4,1505.2,325.8,-0.8,1.8,2470.655,13.28,0.024,119.7
2021-09-26T07:31:03,42.805,6.029,0.02,-0.015,0.0,102.0,103.0,101.0,13.4,1505.2,325.9,-0.7,1.8,2470.638,13.28,0.025,126.9
2021-09-26T07:34:03,42.805,6.029,0.018,-0.017,-0.012,103.0,102.0,100.0,13.4,1505.2,329.7,-0.7,1.8,2470.635,13.28,0.024,133.4
2021-09-26T07:37:03,42.805,6.029,-0.004,0.0,-0.028,103.0,102.0,101.0,13.4,1505.2,329.4,-0.7,1.8,2470.661,13.28,0.004,270.0
2021-09-26T07:40:03,42.805,6.029,0.021,-0.031,-0.036,102.0,102.0,100.0,13.4,1505.2,331.6,-0.8,1.9,2470.656,13.28,0.037,145.9
2021-09-26T07:43:03,42.805,6.029,0.022,-0.02,-0.022,100.0,103.0,102.0,13.4,1505.2,330.0,-0.7,1.8,2470.659,13.28,0.029,132.3
2021-09-26T07:46:03,42.805,6.029,0.0,-0.004,-0.002,103.0,102.0,100.0,13.3,1505.2,331.7,-0.7,1.8,2470.661,13.28,0.004,180.0
2021-09-26T07:49:03,42.805,6.029,0.029,-0.008,0.027,103.0,102.0,100.0,13.4,1505.2,327.9,-0.8,1.8,2470.683,13.28,0.03,105.4
2021-09-26T07:52:03,42.805,6.029,0.037,-0.021,-0.009,102.0,102.0,100.0,13.4,1505.2,325.6,-0.8,1.9,2470.685,13.28,0.042,119.6
2021-09-26T07:55:03,42.805,6.029,0.007,-0.025,-0.041,101.0,102.0,101.0,13.4,1505.2,327.7,-0.7,1.8,2470.669,13.28,0.025,164.4
2021-09-26T07:58:03,42.805,6.029,0.012,-0.018,-0.004,103.0,102.0,100.0,13.4,1505.2,327.0,-0.8,1.8,2470.65,13.28,0.021,146.3
2021-09-26T08:04:03,42.805,6.029,0.027,0.002,0.025,102.0,102.0,100.0,13.4,1505.2,326.8,-0.8,1.8,2470.732,13.28,0.027,85.8
2021-09-26T08:07:03,42.805,6.029,0.026,-0.02,-0.067,101.0,103.0,101.0,13.3,1505.2,329.1,-0.7,1.8,2470.722,13.28,0.032,127.6
2021-09-26T08:10:03,42.805,6.029,0.024,-0.019,-0.017,102.0,101.0,100.0,13.4,1505.2,329.5,-0.8,1.8,2470.729,13.28,0.03,128.4
2021-09-26T08:13:03,42.805,6.029,0.004,0.005,-0.017,101.0,102.0,102.0,13.4,1505.2,328.5,-0.8,1.8,2470.696,13.28,0.006,38.7
2021-09-26T08:16:03,42.805,6.029,0.03,-0.025,-0.012,103.0,102.0,101.0,13.4,1505.2,326.4,-0.8,1.8,2470.687,13.28,0.039,129.8
2021-09-26T08:19:03,42.805,6.029,0.013,-0.003,-0.017,101.0,100.0,103.0,13.4,1505.2,325.6,-0.7,1.8,2470.711,13.28,0.013,103.0
2021-09-26T08:22:03,42.805,6.029,0.024,0.001,0.01,102.0,102.0,100.0,13.4,1505.2,327.1,-0.8,1.9,2470.707,13.28,0.024,87.6
2021-09-26T08:25:03,42.805,6.029,0.036,0.002,-0.012,101.0,102.0,100.0,13.4,1505.2,325.3,-0.7,1.8,2470.684,13.28,0.036,86.8
2021-09-26T08:28:03,42.805,6.029,0.014,-0.009,-0.015,101.0,101.0,101.0,13.3,1505.2,327.2,-0.8,1.8,2470.697,13.28,0.016,122.7
2021-09-26T08:31:03,42.805,6.029,0.023,-0.015,0.002,103.0,102.0,101.0,13.4,1505.2,328.2,-0.8,1.8,2470.718,13.28,0.027,123.1
2021-09-26T08:34:03,42.805,6.029,0.027,0.003,-0.006,102.0,102.0,100.0,13.4,1505.2,330.2,-0.8,1.8,2470.729,13.28,0.027,83.7
2021-09-26T08:37:03,42.805,6.029,0.041,-0.009,-0.014,102.0,101.0,101.0,13.4,1505.2,326.1,-0.8,1.8,2470.697,13.28,0.041,102.4
2021-09-26T08:40:03,42.805,6.029,0.018,-0.009,0.0,103.0,102.0,101.0,13.4,1505.2,330.0,-0.7,1.8,2470.703,13.28,0.02,116.6
2021-09-26T08:43:03,42.805,6.029,0.009,-0.017,-0.015,101.0,102.0,100.0,13.4,1505.2,328.2,-0.8,1.8,2470.756,13.28,0.019,152.1
2021-09-26T08:46:03,42.805,6.029,0.015,-0.011,-0.015,100.0,103.0,101.0,13.4,1505.2,328.4,-0.7,1.8,2470.704,13.28,0.018,126.3
2021-09-26T08:49:03,42.805,6.029,-0.001,-0.025,-0.056,103.0,102.0,101.0,13.4,1505.2,326.7,-0.7,1.8,2470.701,13.28,0.025,182.3
2021-09-26T08:52:03,42.805,6.029,0.018,0.006,0.013,102.0,102.0,100.0,13.4,1505.2,327.4,-0.8,1.8,2470.698,13.28,0.018,71.6
2021-09-26T08:55:03,42.805,6.029,0.026,-0.015,-0.013,102.0,100.0,101.0,13.4,1505.2,329.7,-0.8,1.8,2470.686,13.28,0.03,120.0
2021-09-26T08:58:03,42.805,6.029,0.036,-0.027,0.004,101.0,102.0,100.0,13.3,1505.2,327.7,-0.7,1.8,2470.726,13.28,0.045,126.9
2021-09-26T09:04:03,42.805,6.029,0.01,-0.01,-0.021,103.0,102.0,101.0,13.4,1505.2,330.7,-0.8,1.8,2470.8,13.28,0.014,135.0
2021-09-26T09:07:03,42.805,6.029,-0.003,-0.014,-0.021,102.0,102.0,101.0,13.4,1505.2,326.1,-0.7,1.8,2470.768,13.28,0.014,192.1
2021-09-26T09:10:03,42.805,6.029,-0.003,-0.012,-0.003,102.0,101.0,101.0,13.4,1505.2,328.7,-0.8,1.8,2470.774,13.28,0.012,194.0
2021-09-26T09:13:03,42.805,6.029,-0.014,-0.015,-0.034,103.0,102.0,99.0,13.4,1505.2,329.5,-0.8,1.8,2470.766,13.28,0.02,223.0
2021-09-26T09:16:03,42.805,6.029,-0.012,-0.004,-0.028,100.0,102.0,100.0,13.3,1505.2,325.6,-0.7,1.9,2470.735,13.28,0.012,251.6
2021-09-26T09:19:03,42.805,6.029,0.025,-0.011,-0.031,101.0,101.0,100.0,13.3,1505.2,325.4,-0.8,1.8,2470.748,13.28,0.027,113.7
2021-09-26T09:22:03,42.805,6.029,-0.012,0.0,-0.023,100.0,101.0,101.0,13.4,1505.2,327.4,-0.8,1.8,2470.723,13.28,0.012,270.0
2021-09-26T09:25:03,42.805,6.029,0.007,0.003,-0.008,103.0,100.0,100.0,13.4,1505.2,327.3,-0.8,1.8,2470.702,13.28,0.007,66.8
2021-09-26T09:28:03,42.805,6.029,0.02,-0.019,-0.028,101.0,101.0,100.0,13.4,1505.2,328.5,-0.8,1.8,2470.737,13.28,0.027,133.5
2021-09-26T09:31:03,42.805,6.029,0.031,-0.008,-0.004,103.0,101.0,100.0,13.3,1505.2,328.9,-0.8,1.8,2470.731,13.28,0.032,104.5
2021-09-26T09:34:03,42.805,6.029,0.001,-0.007,0.016,101.0,100.0,100.0,13.4,1505.2,328.5,-0.8,1.8,2470.758,13.28,0.007,171.9
2021-09-26T09:37:03,42.805,6.029,0.019,-0.036,-0.049,100.0,100.0,100.0,13.4,1505.2,329.0,-0.7,1.8,2470.742,13.28,0.04,152.2
2021-09-26T09:40:03,42.805,6.029,0.013,0.012,0.042,102.0,100.0,101.0,13.4,1505.2,330.8,-0.8,1.8,2470.727,13.28,0.017,47.3
2021-09-26T09:43:03,42.805,6.029,0.018,-0.009,0.009,103.0,102.0,100.0,13.4,1505.2,328.4,-0.7,1.9,2470.757,13.28,0.02,116.6
2021-09-26T09:46:03,42.805,6.029,0.01,-0.019,-0.043,102.0,101.0,98.0,13.4,1505.2,331.4,-0.8,1.8,2470.785,13.28,0.021,152.2
2021-09-26T09:49:03,42.805,6.029,0.029,-0.02,-0.004,100.0,102.0,101.0,13.3,1505.2,326.8,-0.8,1.8,2470.787,13.28,0.035,124.6
2021-09-26T09:52:03,42.805,6.029,0.001,-0.008,-0.036,100.0,101.0,101.0,13.4,1505.2,327.5,-0.7,1.9,2470.759,13.28,0.008,172.9
2021-09-26T09:55:03,42.805,6.029,0.004,0.0,-0.003,101.0,101.0,100.0,13.3,1505.2,327.5,-0.8,1.8,2470.719,13.28,0.004,90.0
2021-09-26T09:58:03,42.805,6.029,0.006,-0.005,0.001,102.0,101.0,100.0,13.3,1505.2,328.3,-0.8,1.8,2470.746,13.28,0.007,129.8